Regional Weather Roundup
Issued by NWS

Home | Current Version | Previous Version | Text Only | Print | Product List | Glossary On
Versions: 1 2 3 4 5 6 7 8 9 10 11 12 13 14 15 16 17 18 19 20 21 22 23 24 25 26 27 28 29 30 31 32 33 34 35 36 37 38 39 40 41 42 43 44 45 46 47 48 49 50
000
ASUS43 KLSX 290807
RWRMO

WEATHER SUMMARY FOR MISSOURI
NATIONAL WEATHER SERVICE SPRINGFIELD MO
300 AM CDT WED MAR 29 2017

NOTE: "FAIR" INDICATES FEW OR NO CLOUDS BELOW 12,000 FEET WITH NO
       SIGNIFICANT WEATHER AND/OR OBSTRUCTIONS TO VISIBILITY.
       CURRENT SKY AND/OR WEATHER CONDITIONS ARE NOT AVAILABLE FOR
       CHILLICOTHE AND FARMINGTON.

MOZ001>031-035>038-043-044-053-054-290900-
...NORTHERN AND WESTERN MISSOURI...

CITY           SKY/WX    TMP DP  RH WIND       PRES   REMARKS
KANSAS CTY INT TSTM      52  49  89 NE20      29.93F FOG
KANSAS C DTWN  RAIN      53  50  89 NE16G24   29.89F FOG
LEE`S SUMMIT   RAIN      52  49  89 E21G31    29.88F FOG
ST JOSEPH      CLOUDY    51  48  89 NE9       30.00R
CHILLICOTHE      N/A     51  47  86 E12G21    30.01S
KIRKSVILLE     CLOUDY    48  45  89 E12       30.05F

$$
MOZ066>068-077>081-088>096-101>105-290900-
...SOUTHWEST MISSOURI...

CITY           SKY/WX    TMP DP  RH WIND       PRES   REMARKS
SPRINGFIELD    MOCLDY    56  49  77 E23G30    29.83F
JOPLIN         TSTM      59  55  87 SE17G26   29.77R FOG
BRANSON        CLOUDY    54  52  94 SE18G25   29.89S

$$
MOZ032>034-039>042-045>050-055>058-069>072-290900-
...CENTRAL MISSOURI...

CITY           SKY/WX    TMP DP  RH WIND       PRES   REMARKS
COLUMBIA       CLOUDY    52  48  86 E16       29.99F
JEFFERSON CITY CLOUDY    56  47  71 E15G21    29.98F
ROLLA          CLOUDY    50  48  93 E8        29.98F
SEDALIA        CLOUDY    53  49  86 E17G28    29.94F
WHITEMAN AFB   CLOUDY    54  54 100 E15G24    29.90F
WARRENSBURG    CLOUDY    52  46  82 E15G25    29.91F
OSAGE BEACH    CLOUDY    53  47  79 E13G21    29.96F

$$
MOZ051-052-059>065-290900-
...EAST CENTRAL MISSOURI...

CITY           SKY/WX    TMP DP  RH WIND       PRES   REMARKS
ST LOUIS INTL  CLOUDY    53  45  74 E12       30.08F
SPIRIT OF STL  CLOUDY    53  47  79 E13       30.05F
ST CHARLES     CLOUDY    51  46  83 NE12      30.08F

$$
MOZ072>076-082>087-097>100-106>115-290900-
...SOUTH CENTRAL AND SOUTHEAST MISSOURI...

CITY           SKY/WX    TMP DP  RH WIND       PRES   REMARKS
CAPE GIRARDEAU CLEAR     48  46  93 NE3       30.03F
POPLAR BLUFF   CLEAR     53  50  89 NE8       30.00F
WEST PLAINS    CLOUDY    54  49  83 E15G21    29.97F

$$



USA.gov is the U.S. government's official web portal to all federal, state and local government web resources and services.